Location: Antoign�
(47.0844°N, 0.1131°W)
Time: 07:15:25
(UTC+00:00)

FALCON 9 DEB - Pass Details

Date: 03 March 2021
Orbit: 424 x 435 km, 53.0° (Epoch: 12 April)

Event Time Altitude Azimuth Distance (km) Brightness Sun altitude
Rises 19:56:10 0° 296° (WNW) 2,401 8.3 -22.3°
Reaches altitude 10° 19:58:21 10° 289° (WNW) 1,529 7.0 -22.6°
Enters shadow 20:01:13 39° 237° (WSW) 659 4.3 -23.1°
